Hourly Data Report for September 01, 2017

All times are specified in Local Standard Time (LST). Add 1 hour to adjust for Daylight Saving Time where and when it is observed.

POINT LEPREAU CS
NEW BRUNSWICK

45°04'23.040" N
66°26'57.090" W
6.00 m
8104201
71699
WPE

Download Data

Hourly Data (September 2017)
Hourly Data Report for September 1, 2017
Temp Definition
°C
Dew Point Temp Definition
°C
Rel Hum Definition
%
Wind Dir Definition
10's deg

Wind Spd Definition
km/h
Visibility Definition
km
Stn Press Definition
kPa
Hmdx Definition


Wind Chill Definition


Weather Definition


TIME
00:00 12.5 10.3 87 31 8   100.67     LegendNANA
01:00 12.1 9.8 86 31 8   100.70     LegendNANA
02:00 11.6 9.4 87 31 9   100.71     LegendNANA
03:00 11.3 9.1 86 30 8   100.71     LegendNANA
04:00 11.1 8.9 86 29 7   100.73     LegendNANA
05:00 10.6 8.6 87 28 8   100.73     LegendNANA
06:00 10.5 8.4 86 28 9   100.75     LegendNANA
07:00 11.5 8.5 82 28 11   100.78     LegendNANA
08:00 12.7 8.8 77 29 11   100.80     LegendNANA
09:00 14.1 7.4 64 29 16   100.78     LegendNANA
10:00 13.9 6.6 61 29 13   100.79     LegendNANA
11:00 15.5 7.5 59 28 12   100.76     LegendNANA
12:00 16.7 8.4 58 23 13   100.73     LegendNANA
13:00 15.2 8.4 64 22 14   100.75     LegendNANA
14:00 15.3 7.1 58 24 15   100.73     LegendNANA
15:00 16.3 5.3 48 27 17   100.76     LegendNANA
16:00 13.5 6.9 64 30 19   100.88     LegendNANA
17:00 13.1 7.1 67 29 15   100.91     LegendNANA
18:00 13.1 6.4 64 29 15   100.99     LegendNANA
19:00 12.6 6.7 67 30 14   101.06     LegendNANA
20:00 12.0 6.5 69 30 14   101.13     LegendNANA
21:00 11.7 7.2 74 28 10   101.22     LegendNANA
22:00 11.7 6.8 72 30 14   101.32     LegendNANA
23:00 11.8 6.8 71 31 14   101.38     LegendNANA

Notes on Data Quality.

Legend

  • E = Estimated
  • M = Missing
  • NA = Not Available
  • ‡ = Partner data that is not subject to review by the National Climate Archives
Date modified: